Portada
METAR-TAF:

METAR-TAF

Aeropuertos :

Seldovia, Alaska, Estados Unidos

latitud: 59-27N, longitud: 151-42W, altitud: 9 m

Observación

El informe se hizo hace 45 minutos, a las 19:53 UTC
Viento 3 kt con dirección variable
Temperatura 4°C
Humedad 56%
Presión 1023 hPa
Visibilidad: 16.1 km
Cielo despejado

METAR: PASO 141953Z AUTO VRB03KT 10SM CLR 04/M04 A3021 RMK AO2 SLP231 T00441039 TSNO

Hora: 12:38 (20:38 UTC)


TAF: falta

Observaciones y pronósticos meteorológicos de más de 4000 aeropuertos (mensajes METAR y TAF).

Los puntos amarillos y rojos representan las estaciones disponibles.

Ponga el ratón en el punto deseado para ver el nombre de la estación.

Haga clic para ver las observaciones y los pronósticos meteorológicos.

Para cambiar el mapa : haga clic en los botones verdes con una cruz de color negro para hacer un zoom, en el botón verde con un guión para alejar o en las flechas verdes para mapas adyacentes.


METAR-TAF: